Погода в Ташкенте

Погода в Ташкенте : погода сейчас, прогноз погоды и архив. Всё, что Вы хотите узнать о погоде в Ташкенте!

Хотите узнать прогноз погоды в Ташкенте? Тогда Вам сюда: Погода в Ташкенте

Поиск расширенной информации на нашем сайте:

Полезная информация: ищу няню на Рублевке

Другие новости

Новости СМИ2

Главная страница сайта

Новости сайта

02.10.2013

Напоминаем, что на нашем новом сайте вы можете получить высокодетализированные прогнозы погоды по пунктам России, СНГ и мира (включающие важные для авиации метеовеличины, такие как направление и скорость ветра, видимость, явления погоды, количество и форма облачности, нижняя и верхняя граница облачности), а также ознакомиться с разнообразными материалами по авиационной метеорологии и подборкой полезных ссылок на эту тему.

Сайт Метеоцентр.Азия посвящён разработке технологий оптимизации авиаметеорологического обслуживания, включая проектирование и перспективное создание нескольких автоматизированных авиаметеорологических систем:
- система выпуска высокодетальных прогностических карт явлений погоды для нижнего воздушного пространства по России и ближнему зарубежью;
- система верификации прогнозов TAF (выпускаемых синоптиками официальных АМСГ РФ и ближнего зарубежья) и AUTOTAF (выпускаемых сайтом Метеоцентр.Азия) - выявление ошибок, онлайн-сопоставление с фактической погодой METAR, автоматическое внесение коррективов в прогнозы при резком отклонении фактической погоды от прогноза, подсчёт оправдываемости прогнозов по элементам и в целом;
- система обработки, анализа и отображения авиаметеорологической информации для применения провайдерами метеорологической информации.

Рекомендуем: Трансфер в израиле israel4u.ru.

Погода в Ташкенте - сегодня

Время (UTC), дата Ветер
(°,м/с) 
Видим.   Явления Облачность Т
(°С)
Тd
(°С)
f(%) Тe
(°С)
Pmin
(гПа)
dP
(гПа)
Po
(мм)
O2
(г/м3)
Тmin Tmax R s Состояние
почвы
15 24.04.17 320 (СЗ) 10 км    ясно 
+22.4 +11.1 49 +26  1010.9  -0.4  717  265    +28.2       
18 24.04.17 120 (ЮВ) 10 км    ясно 
+16.5 +11.5 72 +22  1012.1  717  270    +28.2       
21 24.04.17 130 (ЮВ) 10 км    ясно 
+14 +9 72 +16  1011.9  -0.6  717  273           
00 25.04.17 120 (ЮВ) 20000 м    ясно 
+12.3 +5.6 64 +13  1012.2  -0.1  716  275           
03 25.04.17 090 (В) 20000 м    ясно 
+21.2 +5.8 37 +21  1011.9  1.2  717  267           
06 25.04.17 290 (З) 10 км    ясно 
+26 +7.4 31 +26  1011.5  0.5  718  263  +11.8         
09 25.04.17 330 (СЗ) 20000 м    ясно 
+28.8 +3.4 20 +29  1010  -0.9  717  261           
12 25.04.17 280 (З) 20000 м    ясно 
+29.6 +4.8 21 +30  1009.1  -0.7  717  260           
15 25.04.17 010 (С) 10 км    ясно 
+22.6 +11.8 50 +27  1010.8  0.5  717  265    +29.9       
18 25.04.17 070 (В) 10 км    ясно 
+18 +12 68 +24  1012.4  0.6  717  269    +29.9       
21 25.04.17 080 (В) 10 км    ясно 
+15.5 +10.6 73 +20  1012.1  -0.8  717  271           
00 26.04.17 тихо ()   10 км    ясно 
+14 +9.9 76 +16  1012.1  0.4  717  273           
03 26.04.17 тихо ()   10 км    ясно 
+20.2 +8.6 47 +20  1013.5  1.9  719  268           
06 26.04.17 210 (ЮЗ) 10 км    ясно 
+25.7 +10.3 38 +28  1012.9  0.4  719  263  +13.2         
09 26.04.17 290 (З) 10 км    ясно 
+29.1 +7 25 +29  1012.1  -0.1  719  261           
12 26.04.17 290 (З) 10 км    ясно 
+29.3 +11.1 32 +33  1011.9  -0.1  719  259           
15 26.04.17 040 (СВ) 10 км    ясно 
+23.7 +9.8 41 +25  1014  0.9  719  265    +30.4       
18 26.04.17 330 (СЗ) 10 км    ясно 
+19.1 +10.4 57 +23  1015.8  0.9  720  269    +30.4       
21 26.04.17 330 (СЗ) 10 км    ясно 
+17 +7.4 53 +17  1017.3  0.9  721  272           
00 27.04.17 290 (З) 10 км    3/1 1000 м верхняя 
[Cu hum|Ci fib]
+14.2 +6.5 60 +14  1019.5  1.6  722  275           
03 27.04.17 290 (З) 10 км    4/3 1000 м средняя 
[Cu hum|Ac cast]
+13.8 +4 52 +14  1023.4  3.5  725  277           
06 27.04.17 260 (З) 10 км    9/3 1000 м средняя 
[Cu med, cong|Ac lent]
+15.3 +5.5 52 +16  1025.1  726  276  +12         
09 27.04.17 290 (З) 10 км    10/8 1000 м средняя 
[Sc|Ac lent]
+13 +8.1 72 +13  1026.8  1.1  727  278           
12 27.04.17 300 (СЗ) 10 км  слаб. дождь  10/10 300 м 
[Frnb|Ns]
+9.9 +8.5 91 +11  1028.3  0.9  728  281           
18 27.04.17 330 (СЗ) 10 км  слаб. дождь{морось}  10/10 600 м 
[Frnb|Ns]
+9.4 +8.1 92 +10  1030.2  0.5  729  282    +17.2     
Время (UTC), дата Ветер
(°,м/с) 
Видим.   Явления Облачность Т
(°С)
Тd
(°С)
f(%) Тe
(°С)
Pmin
(гПа)
dP
(гПа)
Po
(мм)
O2
(г/м3)
Тmin Tmax R s Состояние
почвы

Для получения пояснительной информации подведите курсор к названию столбца.

ПОГОДА в Ташкенте - архив

Всё, что Вы хотите узнать о погоде в Ташкенте - удобно и подробно!

Выберите нужную дату (начиная с 1 января 2015* года) и нажмите кнопку "Найти".
Будут отображены архивные сводки погоды по пункту Ташкент, начиная с указанной даты.


Отображать данные в формате CSV (для использования в таблицах Excel)


Внимание! Наш архив погоды предназначен исключительно для личного некоммерческого использования в познавательных целях. Если Вам необходимы официальные справки о состоянии погоды (для производственных, юридических, коммерческих и т.п. целей), обращайтесь в органы Росгидромета.

*Примечание: данная дата относится к архиву по метеостанциям СССР (Россия, СНГ, Балтия).
Архив по метеостанциям Зарубежной Европы и Азии (кроме Китая) хранится 10 дней, по другим регионам земного шара (Китай, Африка, Америка, Австралия, Океания) - 1 день.

Ташкент - район местоположения метеостанции


Название, широта, долгота, высота метеостанции:
Ташкент (город) 41.3°ш. 69.3°д. 488 м над ур. моря [Узбекистан]

Дополнительная информация

В oтличие oт бoльшинства пoгoдных сайтoв мы публикуем пoдрoбную метеoинфoрмацию в детальнoм прoфессиoнальнoм фoрмате.

Характеристики температуры и влажнoсти вoздуха измеряются на высoте 2 м в тени вдали oт зданий и деревьев.
Скoрoсть ветра измеряется на высoте 10 м (на урoвне рoста челoвека скoрoсть ветра ниже в 1.5-2 раза). Если метеoстанция нахoдится в гoрoде или в лесу, тo скoрoсть ветра занижена на 2-4 м/с пo сравнению с oткрытым местoм. Скoрoсть ветра над акватoриями крупных рек и oзёр, а также на вершинах хoлмoв на 2-5 м/с выше, чем в oбычных услoвиях.
Атмoсфернoе давление в разных тoчках местнoсти мoжет значительнo oтличаться oт давления на метеoстанции, в зависимoсти oт услoвий рельефа (при пoдъёме на 10 м давление пoнижается примернo на 1 мм рт.ст.).